Flag for Argentina Weather past 2 weeks in Tucumán, Tucumán, Argentina

Now
61 °F

Clear.


Feels Like: 61 °F
Forecast: 54 / 83 °F
Wind: 7 mph from North

Location: Tucuman Aerodrome

Current Time: Mar 29, 2015 at 3:08:56 AM

Latest Report: Mar 29, 2015 at 2:00 AM


Visibility: 10 mi

Pressure: 30.07 "Hg

Humidity: 88%

Dew point: 57 °F

Location of TucumánLocation

Historic Weather in Tucumán — Graph

°F

Tucumán temperature yesterday

Maximum temperature yesterday: 77 °F (at 2:00 PM)
Minimum temperature yesterday: 59 °F (at 3:00 AM)
Average temperature yesterday: 67 °F

Past Weeks' High & Low Weather Summary

 TemperatureHumidityPressure
High91 °F (Mar 18, 4:00 PM)100% (Mar 14, 9:00 AM)30.21 "Hg (Mar 14, 9:00 AM)
Low59 °F (Mar 22, 6:00 AM)49% (Mar 18, 4:00 PM)29.77 "Hg (Mar 14, 4:00 AM)
Average70 °F86%30.04 "Hg
* Reported Mar 14 1:00 AM — Mar 29 1:00 AM, Tucumán, Weather by CustomWeather, © 2015

Note: Actual official high and low records may vary slightly from our data, if they occured in-between our weather recording intervals... More about our weather records

Advertising

Tucumán weather history for previous 24 hours

 ConditionsComfort  
Time TempWeatherWind HumidityBarometerVisibility
1:00 AM
Sun, Mar 29
61 °FClear.9 mph88%30.09 "Hg10 mi
12:00 AM63 °FClear.9 mph88%30.12 "Hg10 mi
11:00 PM
Sat, Mar 28
64 °FPassing clouds.9 mph78%30.12 "HgN/A
10:00 PM64 °FPassing clouds.12 mph83%30.15 "HgN/A
9:00 PM66 °FPassing clouds.10 mph83%30.12 "HgN/A
8:00 PM68 °FPassing clouds.6 mph83%30.12 "HgN/A
7:00 PM72 °FPassing clouds.6 mph73%30.09 "HgN/A
6:00 PM73 °FPartly sunny.10 mph65%30.07 "HgN/A
5:00 PM75 °FPassing clouds.6 mph57%30.12 "HgN/A
4:00 PM75 °FScattered clouds.13 mph61%30.09 "HgN/A
3:00 PM77 °FPassing clouds.9 mph54%30.12 "HgN/A
2:00 PM77 °FPassing clouds.7 mph57%30.12 "HgN/A
1:00 PM75 °FPassing clouds.6 mph57%30.15 "HgN/A
12:00 PM73 °FSunny.6 mph57%30.18 "Hg10 mi
11:00 AM72 °FSunny.5 mph65%30.18 "Hg10 mi
10:00 AM70 °FSunny.8 mph73%30.18 "Hg10 mi
9:00 AM63 °FSunny.7 mph88%30.18 "Hg10 mi
8:00 AM59 °FSunny.7 mph88%30.18 "Hg10 mi
7:00 AM59 °FSunny.5 mph94%30.18 "Hg10 mi
6:00 AM59 °FClear.6 mph94%30.15 "Hg10 mi
5:00 AM61 °FClear.7 mph88%30.15 "Hg10 mi
4:00 AM61 °FClear.8 mph77%30.15 "Hg10 mi
3:00 AM59 °FClear.7 mph88%30.15 "Hg10 mi
Weather by CustomWeather, © 2015

See weather overviewHow to use our weather pages